CST,Max TemperatureF,Mean TemperatureF,Min TemperatureF,Max Dew PointF,MeanDew PointF,Min DewpointF,Max Humidity, Mean Humidity, Min Humidity, Max Sea Level PressureIn, Mean Sea Level PressureIn, Min Sea Level PressureIn, Max VisibilityMiles, Mean VisibilityMiles, Min VisibilityMiles, Max Wind SpeedMPH, Mean Wind SpeedMPH, Max Gust SpeedMPH,PrecipitationIn, CloudCover, Events, WindDirDegrees
2013-1-1,41,36,32,41,34,30,100,97,93,30.31,30.22,30.06,10,7,0,16,10,21,0.00,8,Fog,335
2013-1-2,44,35,26,32,30,27,100,85,57,30.33,30.28,30.20,10,9,5,9,5,,0.00,3,,286
2013-1-3,46,38,30,32,31,27,100,83,57,30.48,30.42,30.33,10,10,10,10,3,9,0.00,0,,319
2013-1-4,48,37,26,32,30,27,100,75,50,30.49,30.41,30.33,10,10,10,13,3,17,0.00,4,,199
2013-1-5,51,42,33,39,35,30,100,75,54,30.32,30.26,30.17,10,10,7,15,7,22,0.00,4,,212
2013-1-6,53,42,32,32,29,27,93,67,38,30.44,30.37,30.32,10,10,10,13,4,,0.00,0,,354
2013-1-7,55,42,30,36,30,25,80,65,41,30.35,30.23,30.10,10,10,10,14,7,18,0.00,0,,169
2013-1-8,59,48,37,50,40,32,100,78,55,30.17,30.09,30.03,10,9,2,14,7,20,0.04,4,Rain,158
2013-1-9,51,50,48,52,51,48,100,100,100,30.31,30.21,30.11,5,3,1,14,8,20,0.35,8,Rain,44
2013-1-10,62,56,51,61,54,52,100,98,77,30.12,29.91,29.82,10,7,1,14,9,20,0.23,7,Rain,156
2013-1-11,71,60,48,55,51,48,100,77,50,29.87,29.78,29.70,10,10,10,21,13,28,0.00,0,,186
2013-1-12,60,46,30,55,34,28,100,78,44,30.09,29.94,29.84,10,10,2,25,11,33,0.12,6,Rain-Snow-Thunderstorm,2
2013-1-13,33,28,23,28,22,19,93,77,60,30.38,30.24,30.00,10,10,10,18,10,22,0.03,1,,360
2013-1-14,39,31,23,23,20,18,86,66,45,30.46,30.36,30.30,10,10,10,14,7,18,0.00,0,,42
2013-1-15,37,30,24,27,23,19,100,76,56,30.32,30.26,30.20,10,10,10,13,6,,0.00,3,,5
2013-1-16,51,37,23,28,24,18,86,63,38,30.24,30.19,30.13,10,10,10,12,3,,0.00,1,,254
2013-1-17,55,44,32,37,33,28,93,71,44,30.50,30.41,30.23,10,10,10,16,4,20,0.00,0,,360
2013-1-18,60,46,32,37,34,32,100,65,39,30.50,30.36,30.21,10,10,10,20,7,24,0.00,0,,186
2013-1-19,68,56,42,41,39,36,81,60,37,30.23,30.17,30.11,10,10,10,15,9,20,0.00,0,,207
2013-1-20,68,52,35,43,37,28,100,64,40,30.27,30.20,30.11,10,10,10,18,4,26,0.00,0,,28
2013-1-21,44,36,28,27,22,19,70,57,39,30.43,30.33,30.28,10,10,10,16,10,21,0.00,0,,29
2013-1-22,60,44,28,37,30,21,81,62,38,30.31,30.24,30.17,10,10,10,14,5,21,0.00,0,,163
2013-1-23,71,54,37,55,45,36,94,75,50,30.25,30.19,30.12,10,10,7,12,6,,0.00,0,,171
2013-1-24,51,43,35,50,35,30,94,73,57,30.25,30.19,30.12,10,10,7,14,8,21,0.00,5,,28
2013-1-25,48,40,32,37,33,28,100,84,62,30.25,30.21,30.14,10,9,5,12,7,,0.00,5,,14
2013-1-26,48,40,32,46,40,32,100,95,76,30.25,30.18,30.09,10,7,2,13,4,16,0.00,6,,145
2013-1-27,66,55,44,63,55,45,100,98,83,30.09,29.96,29.87,10,6,0,18,12,24,0.00,6,Fog-Thunderstorm,167
2013-1-28,77,70,62,68,65,63,100,84,61,29.96,29.87,29.76,10,10,10,22,16,33,0.00,6,,185
2013-1-29,71,56,41,68,59,41,100,94,78,29.77,29.62,29.45,10,8,1,23,15,36,0.33,6,Rain-Thunderstorm,246
2013-1-30,46,40,33,41,33,27,100,74,53,30.08,29.92,29.67,10,10,10,25,14,38,0.08,5,,311
2013-1-31,62,46,30,34,28,19,81,61,32,30.44,30.17,30.04,10,10,10,21,8,29,0.03,0,,272